User: anonymous
Location: Balls_Creek
(35.6670°N, 81.1170°W)
Time: 22:36:02
(UTC-04:00)
Language:

Iridium 42 - Orbit

View from above orbital plane
View from above orbital plane
View from above satellite
View from above satellite

Ground track
Ground track

The orbit data is extracted from the following two-line orbital elements,

1 25077U 97077A   14209.29912187  .00000307  00000-0  10264-3 0  8913
2 25077 086.3968 102.9504 0002212 099.0547 261.0900 14.34218176870971
Epoch (UTC): 28 July 2014 07:10:44
Eccentricity: 0.0002212
inclination: 86.3968°
perigee height: 776 km
apogee height: 779 km
right ascension of ascending node: 102.9504°
argument of perigee: 99.0547°
revolutions per day: 14.34218176
mean anomaly at epoch: 261.0900°
orbit number at epoch: 87097

The dashed part of the orbit path shows where the satellite is in the earth's shadow,  

DLR